Regional Weather Roundup
Issued by NWS Lake Charles, LA

Home | Current Version | Previous Version | Text Only | Print | Product List | Glossary On
Versions: 1 2 3 4 5 6 7 8 9 10 11 12 13 14 15 16 17 18 19 20 21 22 23 24 25 26 27 28 29 30 31 32 33 34 35 36 37 38 39 40 41 42 43 44 45 46 47
000
ASUS44 KLCH 030410
RWRLCH
RWRLCH
REGIONAL WEATHER ROUNDUP
NATIONAL WEATHER SERVICE LAKE CHARLES LA
1100 PM CDT SUN AUG 02 2015

Note: "fair" indicates few or no clouds below 12,000 feet with no
significant weather and/or obstructions to visibility.


ACROSS SOUTHEAST TEXAS

CITY           SKY/WX    TMP DP  RH WIND       PRES   REMARKS
BEAUMONT       CLEAR     78  73  84 CALM      29.87R
BEAUMONT CITY    N/A     76  70  83 CALM      29.88S
ORANGE         CLEAR     77  68  74 CALM      29.89R
JASPER         CLEAR     78  69  74 CALM      29.90S
$$

ACROSS CENTRAL LOUISIANA

CITY           SKY/WX    TMP DP  RH WIND       PRES   REMARKS
LEESVILLE      CLEAR     76  67  73 NE3       29.87R
FULLERTON        N/A     73  66  78 CALM      29.86R
ALEXANDRIA INT CLEAR     76  67  73 CALM      29.86R
ESLER FIELD    CLEAR     75  67  76 CALM      29.88R
DERIDDER         N/A     77  69  76 CALM      29.89S
OAKDALE          N/A     71  69  92 CALM      29.88R
OPELOUSAS        N/A     75  71  86 CALM      29.88R
$$

ACROSS SOUTHWEST AND SOUTH CENTRAL LOUISIANA

CITY           SKY/WX    TMP DP  RH WIND       PRES   REMARKS
SULPHUR        CLEAR     78  72  81 CALM      29.88S
LAKE CHARLES   CLEAR     78  72  81 CALM      29.87R
CHENNAULT INT  CLEAR     77  72  86 CALM      29.88S
CAMERON PHI      N/A     86  73  66 S8        29.90R
DEQUINCY         N/A     75  69  79 CALM      29.88R
JENNINGS         N/A     79  74  83 CALM      29.87S
LAFAYETTE      CLEAR     81  71  71 SW5       29.88R
NEW IBERIA     CLEAR     78  72  81 CALM      29.88R
ABBEVILLE        N/A     79  73  81 CALM      29.88R
PATTERSON      CLEAR     77  72  83 S5        29.90R
SALT POINT       N/A     85  74  69 MISG      29.87R
$$

SELECTED SITES ACROSS THE REGION

CITY           SKY/WX    TMP DP  RH WIND       PRES   REMARKS
HOUSTON BUSH   CLEAR     84  67  56 S5        29.88R
HOUSTON HOBBY  CLEAR     82  69  64 CALM      29.87R
GALVESTON      CLEAR     85  72  65 S6        29.88S
COLLEGE STAT   CLEAR     84  62  47 S10       29.87R
CONROE         CLEAR     78  66  66 CALM      29.88S
HUNTSVILLE     CLEAR     83  64  52 CALM      29.88R
LUFKIN         CLEAR     78  66  66 NE3       29.88R
SHREVEPORT     CLEAR     80  64  58 CALM      29.88R
MONROE         CLEAR     76  70  82 CALM      29.89R
NATCHEZ MS     PTCLDY    75  70  83 CALM      29.89S
BATON ROUGE    CLEAR     79  71  76 CALM      29.88R
N.O. INTL ARPT PTCLDY    83  75  77 SW10      29.88S
SLIDELL        CLEAR     77  72  84 CALM      29.88R
$$

MARINE REPORTS

STATION/POSITION TIME  TEMP    WIND        PRES    VSBY  WAVE
                       AIR SEA DIR/SP/G                  HT/PER
                 (UTC) (F)     (DEG/KT/KT) (MB)    (MI)  (FT/S)
BUOY 30 S HIGH I 0350   87 87  160/  8/ 10 1011.0R         1/ 2
SEA RIM ST PARK  0400   86     190/  7/  8 1012.0R
PORT ARTHUR      0300      89  190/  3/  5 1011.4R
SABINE PASS N    0300   85 88  190/  6/  9 1011.5R
TEXAS POINT      NOT AVBL
CALCASIEU PASS   0300   87 87  200/ 10/ 12 1010.5R
LK CHARLES BEACH 0300   85 88                N/A
MARSH ISLAND     0300   88     190/  4/  8   N/A           0
FRESH WATER LOCK 0300   85 89  180/  5/  6 1011.3S
AMERADA PASS     0300   84 89  160/  2/  3 1011.6R
$$


USA.gov is the U.S. government's official web portal to all federal, state and local government web resources and services.